Theta_e
333 344 357 356 353 351 351 349 349 349 349 347 346 346 346 346 343 341 339 337 335 335 333 332 332 332 332 331 332 332 332 332 333 335 337 341 345 347 351 351 352 351 356
336 347 357 355 354 352 351 350 350 349 348 347 346 344 343 343 340 338 337 335 335 334 334 334 334 334 333 333 333 332 332 331 331 332 333 335 337 340 344 351 350 352 353
337 347 352 355 355 352 351 351 350 349 348 347 345 344 343 342 340 338 338 336 335 335 335 336 335 334 334 335 335 334 334 333 333 332 332 331 331 334 340 345 353 352 355
339 346 348 355 354 353 352 351 350 349 348 347 346 344 342 342 341 337 337 336 336 337 336 335 335 336 336 336 337 338 338 337 336 335 332 332 330 332 337 340 350 352 353
341 345 345 355 354 353 352 351 350 349 348 347 346 344 343 342 343 341 338 338 338 339 338 338 339 339 339 339 339 340 341 341 340 339 335 334 332 334 341 344 342 352 353
340 343 348 354 353 353 353 352 350 349 349 348 347 346 345 342 343 342 339 339 339 340 341 340 341 341 342 343 343 342 342 344 343 340 338 337 338 338 343 346 349 349 354
338 341 345 354 353 353 353 353 351 349 349 348 348 346 345 345 343 342 340 340 340 341 342 343 343 344 345 346 346 345 344 343 343 341 339 338 336 339 343 347 352 352 353
338 341 343 353 353 352 352 352 350 349 349 348 348 347 346 346 345 343 341 341 341 342 343 344 344 345 345 344 344 344 344 344 342 340 338 337 336 340 343 348 350 353 353
336 339 340 348 350 353 352 351 350 349 348 348 347 347 347 346 346 345 344 343 343 344 344 345 346 346 346 344 342 342 343 343 341 338 336 336 337 339 342 347 348 351 352
332 335 335 342 345 346 346 352 350 349 348 348 347 347 347 347 347 346 345 346 344 344 345 347 347 346 345 344 341 340 340 340 338 337 337 336 340 342 341 344 348 350 350
333 330 332 338 340 342 342 345 350 350 349 348 348 348 346 342 342 342 345 345 345 346 346 348 348 347 344 341 340 339 338 335 335 336 336 338 341 342 341 341 345 349 350
330 332 330 333 337 339 340 340 343 342 342 342 342 342 342 339 340 342 343 345 345 347 348 349 349 346 342 336 334 336 333 333 334 335 335 340 340 341 342 341 344 348 349
324 331 333 332 335 336 337 336 338 340 339 340 339 339 340 338 340 342 338 341 340 345 342 346 345 343 337 334 332 330 330 330 331 333 335 339 340 341 341 341 343 348 348
315 320 331 334 334 334 335 334 335 337 336 337 339 337 337 338 336 337 336 335 335 337 340 339 338 337 335 334 331 330 329 329 329 331 333 337 340 341 340 342 344 347 345
312 314 319 334 335 335 333 332 333 334 335 335 336 337 337 336 333 333 334 332 330 333 336 336 335 334 332 331 330 330 329 330 330 332 332 336 339 341 341 342 343 342 343
313 313 315 331 336 336 333 332 333 333 334 333 334 336 336 335 332 332 331 329 329 330 332 333 332 331 329 329 329 329 329 330 331 331 334 334 337 340 341 342 343 344 342
313 314 313 324 334 335 336 334 333 333 334 333 333 335 336 334 331 331 330 328 330 330 330 330 329 329 328 328 328 329 329 329 329 330 331 333 332 336 340 341 343 343 343
312 312 314 321 333 335 335 336 335 334 334 334 333 336 335 334 332 329 329 329 330 329 329 328 327 326 326 326 326 327 328 328 329 330 330 331 332 333 336 341 342 343 341
313 313 313 315 328 333 335 336 335 334 335 334 334 335 335 334 333 330 329 330 330 329 328 327 326 327 325 325 325 326 327 327 327 328 329 330 332 334 335 337 340 341 341
313 313 312 313 320 330 332 331 331 333 334 333 333 334 334 334 334 331 330 330 330 328 327 326 326 325 326 325 325 326 326 327 325 326 327 329 330 332 334 334 337 337 340
312 312 313 313 320 332 332 330 329 332 332 332 334 335 335 335 334 332 331 330 330 328 328 327 325 325 324 326 323 323 323 325 323 324 326 328 329 330 331 332 334 334 335
311 312 312 313 323 332 333 330 330 330 331 332 333 335 336 335 334 332 331 330 328 327 327 326 326 323 322 324 321 318 316 320 321 323 325 326 327 329 330 332 333 332 334
309 311 313 313 324 329 330 328 326 326 326 326 329 331 333 334 334 332 330 328 327 327 326 324 324 322 319 323 323 319 312 312 314 320 322 325 326 327 329 329 331 332 333
310 312 319 322 327 330 329 327 328 325 325 324 328 329 331 333 332 331 329 329 328 328 326 325 324 322 321 318 321 321 318 318 315 313 319 321 324 325 326 327 329 332 333
308 319 325 328 330 330 329 329 326 323 322 323 325 326 327 328 330 331 331 330 328 327 326 324 324 321 321 320 319 318 318 318 319 317 311 314 320 323 325 326 329 330 332
319 327 330 329 327 328 328 326 325 323 323 323 322 323 324 325 327 330 330 329 327 326 325 325 325 324 322 321 320 319 318 318 317 317 314 314 317 321 325 327 327 329 332
Wind_Speed
6 13 21 18 18 17 17 17 17 17 18 18 18 18 17 16 16 15 14 13 12 11 9 8 8 7 6 5 6 5 5 5 5 5 6 7 6 6 4 4 6 5 9
13 15 21 20 19 19 18 18 17 16 17 17 18 18 18 17 17 16 15 12 11 10 9 8 7 6 5 5 4 4 3 4 4 4 5 6 7 7 4 4 6 6 9
14 16 17 20 20 19 18 19 18 18 17 17 17 17 17 16 16 16 15 14 12 10 8 7 6 4 4 3 2 1 1 2 2 4 4 3 5 6 4 5 8 8 9
15 16 16 22 21 21 19 18 18 19 18 18 17 17 17 16 15 15 15 14 13 11 8 7 6 4 3 1 0 1 2 2 2 3 2 3 4 7 6 6 5 10 10
13 15 16 23 22 21 20 19 19 19 19 19 19 18 17 16 15 14 14 14 13 12 10 8 6 4 3 2 2 4 4 4 3 3 1 2 3 6 8 8 7 9 12
12 15 18 23 22 22 22 22 21 21 20 19 19 19 17 17 15 13 13 12 12 12 11 9 7 5 5 4 5 5 6 7 6 2 2 3 3 7 10 11 12 11 11
10 11 14 23 24 24 24 23 22 21 21 20 19 19 17 16 15 14 13 12 11 11 10 9 8 6 6 5 7 7 6 7 5 3 3 3 4 8 11 12 7 11 11
12 11 12 22 23 24 23 21 22 21 21 20 20 19 18 17 16 15 14 13 12 11 11 10 8 6 5 4 4 6 7 9 6 3 4 3 6 9 10 10 7 9 10
5 9 8 11 16 18 18 20 20 20 20 19 19 19 19 18 17 15 14 13 13 12 11 11 10 7 6 6 5 6 8 9 5 4 5 3 6 9 9 9 6 7 10
5 6 7 6 10 11 12 20 20 20 19 19 19 19 19 18 18 16 14 13 14 13 13 12 11 8 7 6 6 7 8 10 5 4 4 4 8 10 9 8 8 7 7
4 6 7 9 9 10 10 11 18 20 19 19 18 19 17 9 11 13 13 14 15 14 14 13 11 9 7 6 7 8 9 2 4 3 3 8 9 11 10 9 8 8 7
6 9 10 10 10 9 9 9 11 10 10 10 10 11 8 7 8 10 12 16 15 14 14 12 12 10 7 2 2 5 2 3 4 4 4 11 12 12 12 11 10 10 9
6 2 10 10 9 11 11 7 7 6 6 7 9 8 7 7 7 6 4 5 5 11 4 7 6 3 4 3 3 3 4 4 3 4 7 12 11 12 13 12 11 10 9
8 9 8 11 11 12 8 8 8 8 8 8 9 10 8 6 6 6 5 6 4 3 4 4 3 3 4 4 4 4 5 4 3 4 6 12 13 13 13 12 9 10 10
8 12 12 11 15 13 14 9 9 11 10 10 9 10 9 8 7 5 5 4 5 3 4 4 4 4 4 5 5 6 6 6 6 4 4 10 12 12 12 12 12 11 12
10 11 10 12 13 11 12 14 12 9 9 8 8 10 12 8 7 7 7 6 4 4 3 4 5 4 4 4 5 6 7 6 5 5 4 4 11 11 13 13 14 14 14
9 11 11 11 10 14 17 14 10 10 9 9 8 9 12 10 10 8 7 5 5 5 5 3 3 3 3 4 6 5 5 6 5 5 5 4 5 11 12 14 14 15 14
9 10 9 7 11 14 14 11 9 7 7 8 8 8 12 12 11 10 8 7 6 4 4 3 3 4 4 4 4 5 5 4 5 5 5 4 5 5 7 12 12 12 12
11 9 9 8 11 14 12 9 8 7 8 6 6 8 12 13 13 9 7 5 5 4 4 3 3 2 3 3 4 4 4 5 4 4 6 6 6 4 3 7 11 11 10
9 8 9 7 10 7 5 5 4 5 5 6 7 8 12 10 12 10 7 6 4 4 3 3 4 3 2 2 3 4 4 5 2 5 6 5 5 5 3 4 5 5 10
10 9 11 7 8 9 6 6 4 6 6 6 6 9 9 9 11 10 5 6 6 6 5 4 2 3 3 3 2 3 3 4 4 3 5 4 5 4 4 4 3 3 3
11 12 10 8 7 7 7 3 3 5 3 5 5 7 8 9 10 9 7 7 7 5 5 5 5 3 3 4 2 0 2 1 2 4 4 4 5 2 4 5 5 4 4
10 11 9 7 9 8 8 7 5 6 5 3 3 4 5 8 9 7 8 7 7 5 5 5 6 8 4 3 4 2 1 3 0 1 4 3 4 3 2 3 5 5 5
14 6 6 6 9 9 9 8 11 5 6 4 4 3 5 7 7 6 6 6 6 4 4 4 4 3 3 4 2 4 1 1 2 2 2 1 3 3 4 3 3 5 5
7 6 4 7 9 12 9 10 8 6 3 4 6 8 5 4 5 5 7 6 5 4 3 4 4 5 4 3 3 3 2 1 1 1 2 1 0 0 1 3 2 4 5
2 4 5 7 6 9 9 10 11 11 9 8 5 6 3 2 3 5 5 5 5 4 4 4 5 5 5 4 3 3 3 3 3 2 2 1 1 1 0 0 1 3 4
Wind_Direction
211 160 167 165 160 164 167 165 162 158 156 155 153 150 149 148 148 150 150 148 147 146 142 135 126 114 104 93 86 76 73 63 29 17 13 8 17 8 4 168 161 166 153
127 158 167 166 167 173 174 170 169 164 162 160 157 155 154 154 153 153 152 152 153 150 147 140 132 123 111 94 74 63 62 52 23 3 357 6 355 349 350 219 179 171 174
136 156 167 171 171 179 182 175 173 171 168 165 160 157 156 156 157 157 155 157 158 156 154 145 135 129 119 111 96 77 33 43 11 344 337 8 337 331 335 308 200 191 178
148 161 169 174 176 183 185 180 179 176 173 169 165 163 164 162 163 163 161 160 162 163 163 160 156 157 151 143 173 286 295 305 306 313 32 344 327 317 322 315 242 200 190
155 166 172 177 180 185 185 186 185 181 178 174 169 169 169 169 169 167 169 167 169 170 172 175 177 183 194 231 255 264 272 281 293 330 354 321 310 306 314 311 288 212 194
164 172 178 178 182 188 189 189 190 186 183 180 174 173 173 172 172 174 175 178 178 178 181 187 195 209 225 239 248 254 259 265 273 285 294 297 310 298 309 303 279 235 196
170 173 180 181 187 191 192 192 192 189 187 183 180 177 176 174 175 180 183 186 192 191 191 200 209 228 249 264 269 259 262 268 269 242 260 277 288 295 309 304 281 199 199
168 173 185 190 192 195 195 193 195 194 190 188 184 179 179 178 181 185 187 190 198 203 203 207 214 226 255 265 277 289 284 273 270 246 259 274 284 299 312 301 234 192 198
149 173 188 195 199 201 198 201 202 199 195 191 189 184 182 181 183 186 190 196 202 209 213 217 220 222 227 240 244 263 272 272 262 252 262 262 284 296 305 328 245 226 209
144 167 186 186 196 204 202 205 204 204 200 197 196 189 185 184 184 186 190 202 209 212 218 225 226 225 224 232 247 258 263 265 270 261 253 255 272 285 289 294 259 248 245
197 195 187 193 193 197 200 209 208 207 206 204 202 197 188 183 184 188 188 200 212 218 222 227 230 221 217 224 247 261 267 233 256 253 253 260 269 276 280 283 281 239 235
220 214 200 202 199 196 203 197 203 206 205 204 201 201 193 177 179 180 190 199 212 220 225 229 225 220 219 178 228 268 284 247 249 250 251 259 266 268 269 276 263 246 231
233 229 209 204 200 196 205 194 199 198 200 200 198 185 182 177 184 187 179 196 193 225 222 228 227 210 192 185 205 214 253 251 245 250 254 259 259 260 260 262 259 229 224
218 233 202 197 199 204 199 202 203 200 201 201 198 184 175 178 178 181 188 197 193 192 210 207 219 209 203 202 211 223 233 243 247 251 254 262 253 247 250 247 247 225 215
230 243 226 195 207 200 195 200 201 205 203 204 192 189 180 179 180 179 187 188 203 181 202 200 213 212 214 214 222 223 231 236 246 244 256 252 259 240 242 240 243 224 212
231 240 240 206 207 190 206 204 205 205 203 195 199 190 183 174 174 181 200 199 194 193 189 205 205 211 215 210 235 225 236 231 242 246 253 258 270 264 245 241 235 223 219
236 240 219 209 185 195 204 211 205 199 187 192 191 180 181 167 177 193 200 195 198 199 190 198 207 197 219 223 240 240 233 231 235 247 250 251 262 262 264 249 232 214 215
256 246 249 190 190 201 207 203 207 196 195 187 176 172 173 174 173 192 194 193 204 186 162 173 188 210 220 213 230 238 238 229 231 240 253 246 247 255 270 242 208 203 214
251 269 271 193 201 204 205 194 191 175 176 176 156 168 172 182 191 181 193 189 148 160 193 191 187 201 195 221 236 240 241 243 229 240 241 236 242 240 256 262 200 197 206
280 269 255 220 216 191 155 144 130 151 158 153 163 172 184 181 180 181 182 173 168 159 176 163 188 192 201 233 249 260 240 239 215 245 227 231 240 238 221 230 223 208 211
282 268 247 216 193 159 150 153 151 182 168 156 166 183 176 179 170 173 178 158 157 177 185 158 139 205 234 203 268 275 247 230 216 197 246 217 230 231 212 196 215 215 225
262 269 270 235 177 177 158 133 143 123 132 144 169 173 175 168 165 173 175 168 158 152 158 162 175 205 227 202 186 174 299 278 216 215 216 209 223 217 217 209 192 209 215
259 261 263 211 179 158 137 118 97 87 81 105 162 160 167 163 170 166 159 151 158 168 186 180 188 204 217 187 203 167 162 229 73 74 219 212 207 204 218 216 199 199 210
262 262 237 178 154 143 148 133 153 139 155 185 147 130 139 158 157 140 144 157 166 157 177 192 174 175 155 184 186 216 246 161 172 125 45 11 219 199 198 231 193 186 198
268 241 191 149 141 145 151 146 144 119 106 116 110 116 123 132 131 147 152 157 152 161 167 176 158 187 186 172 174 153 202 272 97 106 82 355 56 205 210 229 208 187 196
215 141 139 139 126 136 142 136 136 134 133 125 115 133 126 112 140 139 136 149 147 154 176 184 191 185 185 191 178 186 169 176 185 150 133 147 143 103 156 49 201 185 187